{"data":{"norad_id":65385,"intl_designator":"2025-191G","name":"STARLINK-35073","alt_names":[],"object_type":"PAYLOAD","status":"ACTIVE","operator":null,"country":"US","launch_date":"2025-08-30","launch_site_code":"AFWTR","launch_vehicle":null,"mission":null,"orbit_class":"UNKNOWN","rcs_meters":null,"size_class":null,"mass_kg":null,"dimensions":null,"purposes":["comms"],"wikipedia_slug":null,"has_3d_model":false,"image_url":null,"decayed_at":null,"tle_current":{"epoch":"2026-09-20T14:18:28.124640Z","epoch_age_seconds":106551,"freshness":"FRESH","line1":"1 65385U 25191G   26263.59615885  .00017955  00000+0  55708-3 0  9995","line2":"2 65385  97.2834 129.6250 0001537  87.3978 272.7441 15.33449681 59651","mean_motion":15.33449681,"eccentricity":0.0001537,"inclination_deg":97.2834,"raan_deg":129.625,"arg_perigee_deg":87.3978,"mean_anomaly_deg":272.7441,"bstar":0.00055708,"rev_number":5965,"period_min":93.905917999275,"perigee_km":464.47737564874,"apogee_km":466.58111865311,"semimajor_km":6843.6662471509,"source":"CELESTRAK","updated_at":"2026-09-21T09:00:35.598204Z"}}}